Location: North Evanston
(42.0634°N, 87.6976°W)
Time: 12:09:28
(UTC+00:00)

Injun/Solrad 3 - Pass Details

Date: 11 May 2026
Orbit: 867 x 989 km, 66.8° (Epoch: 11 June)

Event Time Altitude Azimuth Distance (km) Brightness Sun altitude
Rises 08:20:29 0° 321° (NW) 3,688 11.2 -20.4°
Reaches altitude 10° 08:23:19 10° 311° (NW) 2,745 10.4 -20.0°
Maximum altitude 08:28:53 32° 252° (WSW) 1,636 8.7 -19.4°
Enters shadow 08:29:37 31° 239° (WSW) 1,662 8.7 -19.3°
Drops below altitude 10° 08:34:26 10° 192° (SSW) 2,734 - -18.7°
Sets 08:37:15 0° 182° (S) 3,671 - -18.3°
